Location: Amos
(48.5670°N, 78.1170°W)
Time: 22:32:47
(UTC-04:00)

ISS - Visible Passes

Search period start: 24 September 2022 00:00
Search period end: 04 October 2022 00:00
Orbit: 414 x 417 km, 51.6° (Epoch: 24 September)

Date Brightness Start Highest point End Pass type
(mag) Time Alt. Az. Time Alt. Az. Time Alt. Az.
24 Sep -3.1 19:57:36 10° W 20:00:53 49° N 20:03:49 12° ENE visible
24 Sep -2.1 21:34:33 10° WNW 21:36:41 35° NW 21:36:41 35° NW visible
25 Sep -3.3 20:45:54 10° WNW 20:49:13 54° N 20:49:51 45° NE visible
25 Sep -0.3 22:22:42 10° WNW 22:22:44 10° WNW 22:22:44 10° WNW visible
26 Sep -3.1 19:57:12 10° WNW 20:00:29 48° N 20:03:01 15° ENE visible
26 Sep -1.9 21:34:00 10° WNW 21:35:53 31° WNW 21:35:53 31° WNW visible
27 Sep -3.9 20:45:20 10° WNW 20:48:42 79° NNE 20:49:03 67° E visible
28 Sep -3.6 19:56:38 10° WNW 19:59:59 62° NNE 20:02:14 19° E visible
28 Sep -1.5 21:33:29 10° WNW 21:35:07 23° W 21:35:07 23° W visible
29 Sep -3.5 20:44:42 10° WNW 20:48:00 57° SSW 20:48:19 54° S visible
30 Sep -3.8 19:55:57 10° WNW 19:59:20 81° SSW 20:01:33 19° ESE visible
30 Sep -1.0 21:33:18 10° W 21:34:27 15° WSW 21:34:27 15° WSW visible
01 Oct -2.2 20:44:12 10° W 20:47:05 27° SW 20:47:45 25° SSW visible
02 Oct -2.7 19:55:17 10° WNW 19:58:27 40° SSW 20:01:07 13° SE visible
03 Oct -1.0 20:44:27 10° WSW 20:45:56 12° SW 20:47:25 10° SSW visible
